Location: Temiskaming Shores
(47.4794°N, 79.7121°W)
Time: 17:11:24
(UTC-05:00)

BlueWalker 3 - Visible Passes

Search period start: 05 November 2024 00:00
Search period end: 15 November 2024 00:00
Orbit: 470 x 482 km, 53.2° (Epoch: 05 November)

Date Brightness Start Highest point End Pass type
(mag) Time Alt. Az. Time Alt. Az. Time Alt. Az.
05 Nov 1.9 18:18:29 10° WSW 18:22:12 74° NNW 18:24:01 28° NE visible
05 Nov 4.7 19:57:05 10° WNW 19:58:09 17° WNW 19:58:09 17° WNW visible
06 Nov 1.8 17:49:16 10° WSW 17:52:58 81° NNW 17:55:58 15° ENE visible
06 Nov 3.7 19:27:49 10° WNW 19:30:05 27° NW 19:30:05 27° NW visible
07 Nov 1.8 17:20:01 10° WSW 17:23:44 89° NNW 17:27:27 10° ENE visible
07 Nov 2.9 18:58:30 10° WNW 19:01:57 35° N 19:01:58 35° N visible
08 Nov 2.8 18:29:09 10° W 18:32:38 36° N 18:33:47 29° NNE visible
08 Nov 5.1 20:07:40 10° WNW 20:07:54 11° WNW 20:07:54 11° WNW visible
09 Nov 2.8 17:59:46 10° W 18:03:16 38° NNW 18:05:33 18° NE visible
09 Nov 4.3 19:38:20 10° WNW 19:39:40 19° NW 19:39:40 19° NW visible
10 Nov 2.7 17:30:21 10° W 17:33:53 40° NNW 17:37:17 11° ENE visible
10 Nov 3.4 19:08:56 10° WNW 19:11:24 29° NNW 19:11:24 29° NNW visible
11 Nov 2.8 18:39:30 10° WNW 18:42:56 33° N 18:43:06 33° NNE visible
12 Nov 2.9 18:10:03 10° WNW 18:13:27 33° N 18:14:48 25° NE visible
12 Nov 4.7 19:48:05 10° WNW 19:48:54 16° WNW 19:48:54 16° WNW visible
13 Nov 2.9 17:40:32 10° WNW 17:43:56 32° N 17:46:29 15° ENE visible
13 Nov 3.6 19:18:37 10° WNW 19:20:36 29° NW 19:20:36 29° NW visible
14 Nov 2.9 17:10:59 10° WNW 17:14:23 32° N 17:17:45 10° ENE visible
14 Nov 2.3 18:49:06 10° WNW 18:52:18 51° N 18:52:18 51° N visible
